Regional Weather Roundup
Issued by NWS Upton, NY

Current Version | Previous Version | Text Only | Print | Product List | Glossary On
Versions: 1 2 3 4 5 6 7 8 9 10 11 12 13 14 15 16 17 18 19 20 21 22 23 24 25 26 27 28 29 30 31 32 33 34 35 36 37 38 39 40 41 42 43 44 45 46 47 48 49 50
000
ASUS41 KOKX 300104
RWROKX

REGIONAL WEATHER ROUNDUP
NATIONAL WEATHER SERVICE NEW YORK NY
900 PM EDT THU SEP 29 2016

NOTE: "FAIR" INDICATES FEW OR NO CLOUDS BELOW 12,000 FEET WITH NO
SIGNIFICANT WEATHER AND/OR OBSTRUCTIONS TO VISIBILITY.

NYZ071-072-176-178-NJZ106-104-300200-
NEW YORK CITY METRO AREA

CITY           SKY/WX    TMP DP  RH WIND       PRES   REMARKS
Central Park   CLOUDY    62  52  69 VRB7G16   30.40R
LaGuardia APRT CLOUDY    64  53  67 E18G26    30.37R
Kennedy INTL   CLOUDY    61  50  67 E17G31    30.38R
Newark/Liberty LGT RAIN  63  53  70 E17       30.37R
Bronx Bot Gard   N/A     61  50  67 E7        30.39S
Wall St Helipt CLOUDY    64  57  77 E13G23    30.37R
Teterboro      CLOUDY    63  50  62 E15G24    30.36R
$$

NYZ177-179-078>081-300200-
LONG ISLAND NEW YORK

CITY           SKY/WX    TMP DP  RH WIND       PRES   REMARKS
Farmingdale    CLOUDY    60  51  72 E16G25    30.37S
MacArthur/ISP  CLOUDY    59  51  75 NE18G24   30.38R
Shirley        CLOUDY    60  52  74 NE8G20    30.39R
Riverhead      NOT AVBL
Westhampton    CLOUDY    59  51  75 NE13G28   30.40R
Southampton    NOT AVBL
Bridgehampton  NOT AVBL
East Hampton   CLOUDY    59  52  77 E10G21    30.40R
Montauk          N/A     60  54  80 NE15G26   30.42R
$$

NYZ052-065-067-300200-
HUDSON VALLEY

CITY           SKY/WX    TMP DP  RH WIND       PRES   REMARKS
White Plains   CLOUDY    59  47  64 E12       30.38R
Newburgh       DRIZZLE   59  50  72 E16       30.42R
Montgomery     LGT RAIN  59  48  67 E5        30.40R
Poughkeepsie   MOCLDY    59  45  59 NE6       30.40R
Albany         MOCLDY    58  46  64 CALM      30.44R
$$

NJZ001-105-106-008-010-013-015-019>022-104-300200-
NEW JERSEY

CITY           SKY/WX    TMP DP  RH WIND       PRES   REMARKS
Newark/Liberty LGT RAIN  63  53  70 E17       30.37R
Teterboro      CLOUDY    63  50  62 E15G24    30.36R
Caldwell       CLOUDY    62  51  67 E8        30.37R
Morristown     CLOUDY    59  55  88 NE7       30.37R
Somerville     CLOUDY    61  52  72 VRB6      30.33R
Linden         NOT AVBL
Sussex         LGT RAIN  58  51  78 NE8       30.38R
Abdover          N/A     56  53  90 NE3       30.37R
Trenton        LGT RAIN  59  55  87 E17G25    30.32R
Millville      LGT RAIN  62  62 100 NE17G25   30.24S FOG
Atlantic City  CLOUDY    63  61  93 NE21G31   30.24F FOG
Wrightstown    MOCLDY    61  59  94 NE14G22   30.27S
Toms River     LGT RAIN  62  59  90 NE13G24   30.31S
Belmar         LGT RAIN  62  57  83 NE15G35   30.34R
$$

PAZ047>061-062-071-300200-
EASTERN PENNSYLVANIA

CITY           SKY/WX    TMP DP  RH WIND       PRES   REMARKS
Philadelphia   RAIN      61  58  90 E14G25    30.28S FOG
Allentown      LGT RAIN  59  54  83 E13       30.32R
Scranton       CLOUDY    59  50  72 NE7       30.32S
$$

CTZ002-004>006-009-010-012-RIZ004-006-007-MAZ004-011-015-300200-
SOUTHERN NEW ENGLAND
 IN CT

CITY           SKY/WX    TMP DP  RH WIND       PRES   REMARKS
Bradley INTL   MOCLDY    55  46  71 NE9       30.47R
Hartford       CLOUDY    56  47  71 NE7       30.46R
Danbury        CLOUDY    57  45  64 E17G23    30.42R
Wtrbury/Oxford   N/A     54  43  66 E13G21    30.43R
Bridgeport     CLOUDY    60  48  64 NE17      30.41R
Meriden        CLOUDY    57  47  69 NE10      30.44R
New Haven      MOCLDY    57  47  69 NE9       30.43R
Chester        MOCLDY    55  48  76 NE8G18    30.43R
Groton         CLOUDY    58  49  72 NE16G24   30.43R
Wilimantic     CLOUDY    56  48  74 NE12      30.47R

 IN RI

CITY           SKY/WX    TMP DP  RH WIND       PRES   REMARKS
Providence     CLOUDY    56  48  74 NE14      30.47R
Block Island   CLOUDY    59  52  77 NE21G30   30.43R
Westerly       CLOUDY    57  48  72 NE9G20    30.45R
 IN MA

CITY           SKY/WX    TMP DP  RH WIND       PRES   REMARKS
Boston         MOCLDY    57  50  77 E18       30.49S
Worcester      CLEAR     49  45  86 NE9       30.49R
Westfield      PTCLDY    55  46  71 NE9       30.48R
Provincetown   PTCLDY    57  51  80 E18G24    30.48S
Nantucket      CLOUDY    59  52  77 NE17      30.44R
$$

ANZ330-335-338-340-345-350-353-355-300200-
COASTAL MARINE OBSERVATIONS


STATION/POSITION TIME  SKY/WX   TEMP    WIND        PRES    VSBY  WAVE
                                AIR SEA DIR/SP/G                  HT/PER
                 (UTC)          (F)     (DEG/KT/KT) (MB)    (MI)  (FT/S)
NY HARB ENTRANCE 2350            64 70   70/ 29/ 35 1025.8         10/ 8
20S FIRE ISLAND  2350            63 67   70/ 27/ 33 1025.7         12/ 8
GREAT SOUTH BAY  0000            62 66   70/ 17/ 27   N/A
23 SSW MONTAUK P 2350            62 65   70/ 27/ 33 1028.0         10/ 6
15 E BARNEGAT LI 0000               70                N/A          13/ 9
HUDSON CANYON    2350            66 69              1023.7         11/ 8
KINGS POINT      0030            62 70              1028.1
EXECUTION ROCKS  0045            64      70/ 23/ 31   N/A
CENTRAL LI SOUND 0015            60 71   70/ 21/ 27   N/A           4/ 5
EASTERN LI SOUND NOT AVBL
ROBBINS REEF     0030            62      70/ 19/ 23 1028.2
$$


>>>>>>>>>>>>>>>>>>>>>>>>>>>> KEY <<<<<<<<<<<<<<<<<<<<<<<<<<<
>                                                          <
>     SKY/WX - Sky Condition/Present Weather               <
>     TMP    - Temperature in Fahrenheit                   <
>     DP     - Dew Point in Fahrenheit                     <
>     RH     - Relative Humidity in Percent                <
>     WIND   - Direction (from) and Speed in MPH           <
>     PRES   - Mean Sea Level Pressure (inches of Hg)      <
>     WCI    - Wind Chill Index                            <
>     VSB    - VISIBILITY IN MILES                         <
>     HX     - HEAT INDEX                                  <
>     TC     - TEMPERATURE IN CELSIUS                      <
>     VRB    - VARIABLE WIND DIRECTION                     <
>                                                          <
>>>>>>>>>>>>>>>>>>>>>>>>>>>> KEY <<<<<<<<<<<<<<<<<<<<<<<<<<<




USA.gov is the U.S. government's official web portal to all federal, state and local government web resources and services.